sat.trackr.live / text

‹ back to catalog

STARLINK-3694

NORAD 51957 · 2022-025B

PAYLOAD ACTIVE UNKNOWN

§ Identity

Operator
Country
US
Launch date
2022-03-09
Launch site
AFETR
Launch vehicle
Mass (kg)
RCS (m²)

Purposes: comms

External: N2YO · Heavens-Above · Gunter

§ Orbital elements

Epoch: 2026-09-19T12:41:14.480448Z

Period
94.01 min
Inclination
53.1614°
Eccentricity
0.0001753
Mean motion
15.31697616 rev/d
Perigee alt
469.5 km
Apogee alt
471.9 km
Semi-major
6,848.9 km
B*
2.4837e-6
RAAN
214.7749°
Arg perigee
94.5281°
Mean anomaly
265.5921°
Rev number
25,053

§ Raw data

STARLINK-36941 51957U 22025B   26262.52863982 -.00000288  00000+0  24837-5 0  99962 51957  53.1614 214.7749 0001753  94.5281 265.5921 15.31697616250538

JSON: /api/v1/satellites/51957 · /tle

For live sub-satellite position, see the globe view (requires WebGL).

§ Visibility from observer

Set your observer location to see the next 7 days of passes ≥ 10°. The values pass through the URL so the page stays shareable.

No JS? Fill the form by hand. The geolocation button needs JavaScript.